AFL1210 ENBR-UUEE

Flight info

Callsign AFL1210
Flight time 1h 38m
Altitude 37000
Route GOKAB L24 MASEV Z183 ELTOK P607 NEBSI DCT IGORO/K0896F370 M864 DIPOP DIPOP3F
Aircraft A359/H-SDE2E3GHIJ3J4J5LM1ORWXY/LB1D1

Departure

Time 2026-05-07 14:32
Airport Bergen Airport, Flesland (ENBR)

Arrival

Time 2026-05-07 16:10
Airport Sheremetyevo International Airport (UUEE)
Time Latitude Longitude Altitude Speed Heading
2026-05-07 14:24 60.29013 5.22375 182 ft 0 kts 352°
2026-05-07 14:26 60.29027 5.22370 182 ft 7 kts 350°
2026-05-07 14:26 60.29107 5.22340 195 ft 14 kts 349°
2026-05-07 14:26 60.29227 5.22297 180 ft 22 kts 349°
2026-05-07 14:26 60.29410 5.22232 168 ft 30 kts 350°
2026-05-07 14:27 60.29630 5.22159 157 ft 28 kts 351°
2026-05-07 14:27 60.29667 5.22147 156 ft 4 kts 351°
2026-05-07 14:27 60.29718 5.22088 155 ft 13 kts 314°
2026-05-07 14:27 60.29818 5.21975 157 ft 19 kts 348°
2026-05-07 14:28 60.29955 5.21929 162 ft 20 kts 351°
2026-05-07 14:28 60.30094 5.21880 168 ft 20 kts 349°
2026-05-07 14:28 60.30232 5.21833 174 ft 20 kts 352°
2026-05-07 14:28 60.30368 5.21790 192 ft 20 kts 351°
2026-05-07 14:29 60.30498 5.21746 194 ft 16 kts 351°
2026-05-07 14:29 60.30611 5.21707 194 ft 17 kts 344°
2026-05-07 14:29 60.30655 5.21498 195 ft 19 kts 260°
2026-05-07 14:29 60.30584 5.21405 183 ft 10 kts 173°
2026-05-07 14:30 60.30579 5.21406 183 ft 0 kts 173°
2026-05-07 14:30 60.30576 5.21407 183 ft 4 kts 173°
2026-05-07 14:31 60.30355 5.21480 178 ft 68 kts 170°
2026-05-07 14:31 60.29942 5.21617 161 ft 112 kts 170°
2026-05-07 14:31 60.28980 5.21951 204 ft 164 kts 172°
2026-05-07 14:31 60.27377 5.22538 770 ft 186 kts 173°
2026-05-07 14:32 60.26488 5.22822 1090 ft 203 kts 173°
2026-05-07 14:32 60.25078 5.23266 1580 ft 201 kts 171°
2026-05-07 14:32 60.23665 5.23729 2130 ft 215 kts 171°
2026-05-07 14:32 60.22121 5.24238 2637 ft 235 kts 170°
2026-05-07 14:33 60.20454 5.24791 3160 ft 248 kts 170°
2026-05-07 14:33 60.18741 5.25357 3671 ft 251 kts 170°
2026-05-07 14:33 60.17018 5.25934 4173 ft 252 kts 170°
2026-05-07 14:33 60.15289 5.26511 4721 ft 252 kts 171°
2026-05-07 14:34 60.13553 5.27128 5240 ft 253 kts 168°
2026-05-07 14:34 60.11933 5.28420 5756 ft 256 kts 148°
2026-05-07 14:34 60.10667 5.30940 6288 ft 260 kts 124°
2026-05-07 14:34 60.10030 5.34354 6804 ft 266 kts 100°
2026-05-07 14:35 60.10111 5.38102 7307 ft 273 kts 81°
2026-05-07 14:35 60.10816 5.41681 7816 ft 281 kts 58°
2026-05-07 14:35 60.12174 5.44437 8344 ft 286 kts 33°
2026-05-07 14:35 60.14024 5.45857 8872 ft 288 kts
2026-05-07 14:36 60.16024 5.45787 9421 ft 289 kts 351°
2026-05-07 14:36 60.18035 5.45314 9960 ft 293 kts 351°
2026-05-07 14:36 60.20086 5.44846 10478 ft 303 kts 351°
2026-05-07 14:36 60.22244 5.44383 10967 ft 321 kts 351°
2026-05-07 14:37 60.24527 5.43915 11465 ft 338 kts 351°
2026-05-07 14:37 60.29436 5.43947 12495 ft 372 kts 12°
2026-05-07 14:37 60.31820 5.46149 13028 ft 385 kts 34°
2026-05-07 14:38 60.33729 5.49986 13583 ft 391 kts 52°
2026-05-07 14:38 60.35319 5.54483 14091 ft 396 kts 55°
2026-05-07 14:38 60.36883 5.59091 14598 ft 400 kts 54°
2026-05-07 14:38 60.38471 5.63723 15090 ft 403 kts 53°
2026-05-07 14:39 60.40128 5.68319 15600 ft 406 kts 52°
2026-05-07 14:39 60.41821 5.72917 16109 ft 409 kts 51°
2026-05-07 14:39 60.43516 5.77529 16639 ft 413 kts 51°
2026-05-07 14:39 60.45231 5.82212 17167 ft 417 kts 51°
2026-05-07 14:40 60.46959 5.86984 17703 ft 421 kts 52°
2026-05-07 14:40 60.48460 5.92118 18264 ft 427 kts 62°
2026-05-07 14:40 60.49533 5.97780 18760 ft 433 kts 75°
2026-05-07 14:40 60.49905 6.03874 19266 ft 437 kts 89°
2026-05-07 14:41 60.49783 6.10073 19741 ft 441 kts 96°
2026-05-07 14:41 60.49393 6.16191 20234 ft 445 kts 100°
2026-05-07 14:41 60.48864 6.22417 20684 ft 451 kts 102°
2026-05-07 14:41 60.48288 6.28684 20974 ft 453 kts 102°
2026-05-07 14:42 60.47715 6.34986 21283 ft 456 kts 101°
2026-05-07 14:42 60.47159 6.41347 21601 ft 459 kts 101°
2026-05-07 14:42 60.46622 6.47752 21919 ft 462 kts 101°
2026-05-07 14:42 60.46096 6.54208 22252 ft 465 kts 100°
2026-05-07 14:43 60.45573 6.60716 22579 ft 467 kts 100°
2026-05-07 14:43 60.45050 6.67244 22924 ft 470 kts 100°
2026-05-07 14:43 60.44529 6.73709 23246 ft 473 kts 100°
2026-05-07 14:43 60.43994 6.80302 23599 ft 476 kts 100°
2026-05-07 14:44 60.43449 6.86942 23894 ft 479 kts 100°
2026-05-07 14:44 60.42896 6.93626 24178 ft 482 kts 100°
2026-05-07 14:44 60.42338 7.00328 24478 ft 484 kts 100°
2026-05-07 14:44 60.41777 7.07061 24767 ft 487 kts 100°
2026-05-07 14:45 60.41383 7.13897 25081 ft 490 kts 96°
2026-05-07 14:45 60.41100 7.20786 25368 ft 492 kts 94°
2026-05-07 14:45 60.40857 7.27710 25669 ft 495 kts 94°
2026-05-07 14:45 60.40631 7.34701 25973 ft 498 kts 94°
2026-05-07 14:46 60.40409 7.41706 26282 ft 501 kts 94°
2026-05-07 14:46 60.40183 7.48761 26606 ft 503 kts 94°
2026-05-07 14:46 60.39949 7.55852 26992 ft 506 kts 94°
2026-05-07 14:46 60.39708 7.62898 27382 ft 510 kts 94°
2026-05-07 14:47 60.39457 7.70078 27790 ft 513 kts 94°
2026-05-07 14:47 60.39197 7.77312 28199 ft 517 kts 94°
2026-05-07 14:47 60.38931 7.84590 28604 ft 520 kts 94°
2026-05-07 14:47 60.38659 7.91920 29022 ft 524 kts 94°
2026-05-07 14:48 60.38380 7.99306 29447 ft 528 kts 94°
2026-05-07 14:48 60.38096 8.06736 29873 ft 532 kts 94°
2026-05-07 14:48 60.37805 8.14221 30288 ft 535 kts 94°
2026-05-07 14:48 60.37510 8.21752 30652 ft 538 kts 94°
2026-05-07 14:49 60.37209 8.29302 31021 ft 541 kts 94°
2026-05-07 14:49 60.36901 8.36905 31394 ft 543 kts 94°
2026-05-07 14:49 60.36593 8.44406 31769 ft 544 kts 94°
2026-05-07 14:49 60.36274 8.52053 32157 ft 546 kts 94°
2026-05-07 14:50 60.35951 8.59690 32543 ft 547 kts 94°
2026-05-07 14:50 60.35622 8.67374 32932 ft 548 kts 94°
2026-05-07 14:50 60.35290 8.75042 33337 ft 548 kts 94°
2026-05-07 14:50 60.34953 8.82688 33746 ft 548 kts 94°
2026-05-07 14:51 60.34611 8.90374 34139 ft 547 kts 94°
2026-05-07 14:51 60.34266 8.98028 34493 ft 547 kts 95°
2026-05-07 14:51 60.33917 9.05662 34848 ft 546 kts 95°
2026-05-07 14:51 60.33563 9.13291 35200 ft 545 kts 95°
2026-05-07 14:52 60.33210 9.20814 35562 ft 544 kts 95°
2026-05-07 14:52 60.33056 9.24091 35724 ft 543 kts 95°
2026-05-07 14:52 60.32905 9.27265 35873 ft 542 kts 95°
2026-05-07 14:52 60.32542 9.34833 36246 ft 541 kts 95°
2026-05-07 14:53 60.32182 9.42369 36623 ft 539 kts 95°
2026-05-07 14:53 60.31881 9.49909 36970 ft 537 kts 94°
2026-05-07 14:53 60.31377 9.64978 37052 ft 538 kts 94°
2026-05-07 14:54 60.30866 9.80044 37063 ft 538 kts 94°
2026-05-07 14:54 60.30310 9.95078 37061 ft 537 kts 94°
2026-05-07 14:55 60.29727 10.10006 37063 ft 537 kts 94°
2026-05-07 14:55 60.29138 10.24597 37069 ft 537 kts 95°
2026-05-07 14:56 60.28515 10.39587 37062 ft 536 kts 95°
2026-05-07 14:56 60.27497 10.63350 37078 ft 536 kts 95°
2026-05-07 14:57 60.26153 10.93268 37075 ft 535 kts 95°
2026-05-07 14:57 60.25401 11.09380 37071 ft 535 kts 95°
2026-05-07 14:58 60.24691 11.24204 37079 ft 535 kts 96°
2026-05-07 14:58 60.23962 11.39090 37071 ft 534 kts 96°
2026-05-07 14:59 60.22589 11.66193 37079 ft 534 kts 96°
2026-05-07 14:59 60.21022 11.95878 37073 ft 534 kts 97°
2026-05-07 15:00 60.19385 12.25584 37070 ft 534 kts 97°
2026-05-07 15:00 60.17688 12.55171 37074 ft 534 kts 97°
2026-05-07 15:01 60.15828 12.84780 37074 ft 534 kts 98°
2026-05-07 15:01 60.13882 13.14365 37078 ft 535 kts 98°
2026-05-07 15:02 60.11883 13.43937 37076 ft 535 kts 99°
2026-05-07 15:02 60.09828 13.73325 37075 ft 536 kts 99°
2026-05-07 15:03 60.07679 14.03060 37075 ft 536 kts 99°
2026-05-07 15:03 60.05501 14.32441 37083 ft 537 kts 99°
2026-05-07 15:04 60.03292 14.62021 37105 ft 538 kts 99°
2026-05-07 15:04 60.01058 14.91791 37119 ft 538 kts 99°
2026-05-07 15:05 59.98840 15.21200 37140 ft 538 kts 99°
2026-05-07 15:05 59.96597 15.50820 37145 ft 538 kts 99°
2026-05-07 15:06 59.94350 15.80349 37138 ft 538 kts 99°
2026-05-07 15:06 59.92088 16.09937 37132 ft 539 kts 99°
2026-05-07 15:07 59.88879 16.39083 37112 ft 538 kts 106°
2026-05-07 15:07 59.85505 16.68135 37111 ft 538 kts 104°
2026-05-07 15:08 59.82826 16.94089 37075 ft 537 kts 102°
2026-05-07 15:08 59.80679 17.08196 37076 ft 532 kts 116°
2026-05-07 15:09 59.77483 17.21310 37074 ft 530 kts 120°
2026-05-07 15:09 59.74154 17.34370 37078 ft 531 kts 119°
2026-05-07 15:10 59.70920 17.47529 37074 ft 531 kts 118°
2026-05-07 15:10 59.67738 17.60731 37075 ft 531 kts 118°
2026-05-07 15:11 59.64548 17.73946 37074 ft 531 kts 118°
2026-05-07 15:11 59.61349 17.87107 37072 ft 531 kts 118°
2026-05-07 15:12 59.58135 18.00234 37074 ft 531 kts 118°
2026-05-07 15:12 59.54908 18.13330 37078 ft 530 kts 118°
2026-05-07 15:13 59.46111 18.52820 37106 ft 530 kts 115°
2026-05-07 15:13 59.36943 18.94784 37111 ft 529 kts 116°
2026-05-07 15:14 59.31071 19.21008 37124 ft 528 kts 116°
2026-05-07 15:14 59.25112 19.47310 37122 ft 528 kts 117°
2026-05-07 15:15 59.19117 19.73492 37118 ft 527 kts 117°
2026-05-07 15:15 59.10975 20.08498 37114 ft 527 kts 117°
2026-05-07 15:16 58.98745 20.60070 37108 ft 525 kts 118°
2026-05-07 15:16 58.85799 21.10653 37097 ft 521 kts 125°
2026-05-07 15:17 58.70895 21.58661 37092 ft 522 kts 124°
2026-05-07 15:17 58.56096 22.06245 37082 ft 522 kts 125°
2026-05-07 15:18 58.40946 22.53952 37054 ft 521 kts 126°
2026-05-07 15:18 58.25860 23.00521 37051 ft 520 kts 127°
2026-05-07 15:19 58.13028 23.39418 37047 ft 519 kts 127°
2026-05-07 15:19 57.95066 23.92818 37040 ft 517 kts 128°
2026-05-07 15:20 57.79512 24.38105 37024 ft 515 kts 128°
2026-05-07 15:20 57.66381 24.75679 37028 ft 514 kts 129°
2026-05-07 15:21 57.50674 25.19864 37011 ft 513 kts 129°
2026-05-07 15:21 57.34793 25.63726 37010 ft 512 kts 129°
2026-05-07 15:22 57.18758 26.07217 37010 ft 512 kts 130°
2026-05-07 15:22 57.02549 26.50395 36986 ft 512 kts 130°
2026-05-07 15:23 56.86254 26.93038 36976 ft 510 kts 131°
2026-05-07 15:23 56.69868 27.35168 36965 ft 509 kts 131°
2026-05-07 15:24 56.53344 27.76931 36946 ft 508 kts 132°
2026-05-07 15:24 56.36734 28.18212 36925 ft 508 kts 132°
2026-05-07 15:25 56.33350 28.43452 36917 ft 531 kts 98°
2026-05-07 15:25 56.31526 28.69764 36912 ft 529 kts 103°
2026-05-07 15:25 56.26558 29.21938 36902 ft 529 kts 103°
2026-05-07 15:26 56.21485 29.73722 36884 ft 529 kts 103°
2026-05-07 15:26 56.16161 30.25717 36873 ft 528 kts 104°
2026-05-07 15:27 56.10639 30.77399 36865 ft 527 kts 104°
2026-05-07 15:27 56.07157 31.09133 36857 ft 527 kts 104°
2026-05-07 15:28 56.04319 31.34835 36853 ft 526 kts 104°
2026-05-07 15:28 56.01425 31.60489 36845 ft 526 kts 104°
2026-05-07 15:29 55.98478 31.86100 36845 ft 526 kts 104°
2026-05-07 15:29 55.95500 32.11470 36841 ft 525 kts 104°
2026-05-07 15:30 55.92432 32.37117 36840 ft 525 kts 104°
2026-05-07 15:30 55.90729 32.51171 36835 ft 525 kts 104°
2026-05-07 15:31 55.89168 32.63882 36846 ft 525 kts 104°
2026-05-07 15:31 55.87595 32.76569 36808 ft 525 kts 104°
2026-05-07 15:32 55.86805 32.82907 36504 ft 524 kts 104°
2026-05-07 15:32 55.86011 32.89245 36118 ft 524 kts 104°
2026-05-07 15:32 55.85367 32.95638 35721 ft 527 kts 96°
2026-05-07 15:32 55.85274 33.02155 35426 ft 528 kts 89°
2026-05-07 15:33 55.85484 33.08692 35279 ft 529 kts 85°
2026-05-07 15:33 55.85803 33.15217 35009 ft 529 kts 85°
2026-05-07 15:33 55.86127 33.21681 34648 ft 529 kts 85°
2026-05-07 15:33 55.86422 33.28218 34281 ft 530 kts 86°
2026-05-07 15:34 55.86676 33.34765 33932 ft 530 kts 86°
2026-05-07 15:34 55.86894 33.41327 33534 ft 531 kts 87°
2026-05-07 15:34 55.87090 33.47885 33110 ft 531 kts 87°
2026-05-07 15:34 55.87272 33.54469 32703 ft 532 kts 88°
2026-05-07 15:35 55.87447 33.61050 32303 ft 532 kts 88°
2026-05-07 15:35 55.87619 33.67631 31903 ft 533 kts 88°
2026-05-07 15:35 55.87789 33.74229 31520 ft 533 kts 88°
2026-05-07 15:35 55.87957 33.80821 31140 ft 533 kts 88°
2026-05-07 15:36 55.88124 33.87427 30762 ft 534 kts 88°
2026-05-07 15:36 55.88285 33.93964 30393 ft 534 kts 88°
2026-05-07 15:36 55.88445 34.00571 30027 ft 534 kts 88°
2026-05-07 15:36 55.88604 34.07256 29608 ft 532 kts 88°
2026-05-07 15:37 55.88754 34.13728 29193 ft 529 kts 88°
2026-05-07 15:37 55.88902 34.20254 28776 ft 525 kts 88°
2026-05-07 15:37 55.89045 34.26734 28362 ft 522 kts 88°
2026-05-07 15:37 55.89184 34.33195 27967 ft 519 kts 88°
2026-05-07 15:38 55.89321 34.39595 27555 ft 516 kts 88°
2026-05-07 15:38 55.89450 34.45965 27161 ft 513 kts 88°
2026-05-07 15:38 55.89570 34.52327 26768 ft 510 kts 89°
2026-05-07 15:38 55.89683 34.58616 26386 ft 507 kts 89°
2026-05-07 15:39 55.89793 34.64891 26002 ft 504 kts 89°
2026-05-07 15:39 55.89900 34.71130 25633 ft 502 kts 89°
2026-05-07 15:39 55.90004 34.77311 25269 ft 499 kts 89°
2026-05-07 15:39 55.90106 34.83492 24856 ft 497 kts 89°
2026-05-07 15:40 55.90204 34.89632 24381 ft 493 kts 89°
2026-05-07 15:40 55.90297 34.95631 23919 ft 486 kts 89°
2026-05-07 15:40 55.90386 35.01605 23464 ft 479 kts 89°
2026-05-07 15:40 55.90475 35.07507 22918 ft 473 kts 89°
2026-05-07 15:41 55.90562 35.13322 22399 ft 466 kts 89°
2026-05-07 15:41 55.90645 35.19066 21864 ft 461 kts 89°
2026-05-07 15:41 55.90723 35.24755 21347 ft 455 kts 89°
2026-05-07 15:41 55.90798 35.30355 20838 ft 449 kts 90°
2026-05-07 15:42 55.90870 35.35896 20340 ft 444 kts 90°
2026-05-07 15:42 55.90939 35.41372 19851 ft 439 kts 90°
2026-05-07 15:42 55.91009 35.46791 19366 ft 435 kts 90°
2026-05-07 15:42 55.91371 35.52113 18895 ft 432 kts 78°
2026-05-07 15:43 55.92189 35.57160 18433 ft 428 kts 72°
2026-05-07 15:43 55.93142 35.62152 17945 ft 424 kts 71°
2026-05-07 15:43 55.94113 35.67098 17417 ft 420 kts 71°
2026-05-07 15:43 55.95082 35.71988 16877 ft 416 kts 71°
2026-05-07 15:44 55.96043 35.76835 16365 ft 413 kts 71°
2026-05-07 15:44 55.96998 35.81646 15950 ft 407 kts 71°
2026-05-07 15:44 55.97933 35.86366 15611 ft 400 kts 71°
2026-05-07 15:44 55.98851 35.91003 15259 ft 393 kts 71°
2026-05-07 15:45 55.99752 35.95564 14922 ft 386 kts 71°
2026-05-07 15:45 56.00637 36.00056 14592 ft 380 kts 72°
2026-05-07 15:45 56.01506 36.04475 14261 ft 374 kts 72°
2026-05-07 15:45 56.02363 36.08845 13924 ft 370 kts 72°
2026-05-07 15:46 56.04053 36.17492 13214 ft 367 kts 72°
2026-05-07 15:46 56.04892 36.21803 12846 ft 366 kts 72°
2026-05-07 15:46 56.05727 36.26095 12484 ft 364 kts 72°
2026-05-07 15:47 56.06555 36.30361 12127 ft 362 kts 72°
2026-05-07 15:47 56.07376 36.34603 11900 ft 360 kts 72°
2026-05-07 15:47 56.08193 36.38833 11873 ft 360 kts 72°
2026-05-07 15:47 56.09030 36.43065 11871 ft 361 kts 69°
2026-05-07 15:48 56.10235 36.46968 11870 ft 354 kts 51°
2026-05-07 15:48 56.11974 36.49950 11622 ft 342 kts 33°
2026-05-07 15:48 56.13913 36.52364 11260 ft 337 kts 30°
2026-05-07 15:48 56.15860 36.54663 10910 ft 334 kts 30°
2026-05-07 15:49 56.17790 36.56931 10547 ft 331 kts 29°
2026-05-07 15:49 56.19706 36.59181 10194 ft 328 kts 29°
2026-05-07 15:49 56.21606 36.61418 9825 ft 325 kts 29°
2026-05-07 15:49 56.23489 36.63638 9453 ft 322 kts 30°
2026-05-07 15:50 56.25355 36.65838 9015 ft 321 kts 29°
2026-05-07 15:50 56.27222 36.68038 8566 ft 321 kts 30°
2026-05-07 15:50 56.29089 36.70229 8101 ft 320 kts 31°
2026-05-07 15:50 56.30585 36.73180 7655 ft 323 kts 61°
2026-05-07 15:51 56.31225 36.77013 7231 ft 320 kts 84°
2026-05-07 15:51 56.31528 36.80993 6783 ft 320 kts 83°
2026-05-07 15:51 56.31901 36.84944 6352 ft 320 kts 80°
2026-05-07 15:51 56.31944 36.88879 5892 ft 312 kts 102°
2026-05-07 15:52 56.31536 36.92712 5447 ft 310 kts 104°
2026-05-07 15:52 56.31119 36.96468 4994 ft 309 kts 103°
2026-05-07 15:52 56.30730 37.00265 4564 ft 308 kts 102°
2026-05-07 15:52 56.30361 37.04085 4269 ft 301 kts 102°
2026-05-07 15:53 56.30031 37.07632 4209 ft 278 kts 101°
2026-05-07 15:53 56.29727 37.10887 4171 ft 248 kts 103°
2026-05-07 15:53 56.29190 37.13725 4200 ft 232 kts 117°
2026-05-07 15:53 56.28526 37.16355 4204 ft 230 kts 118°
2026-05-07 15:54 56.27860 37.18919 4201 ft 227 kts 118°
2026-05-07 15:54 56.27186 37.21515 4199 ft 230 kts 118°
2026-05-07 15:54 56.26517 37.24119 4200 ft 229 kts 118°
2026-05-07 15:54 56.25850 37.26726 4201 ft 229 kts 118°
2026-05-07 15:55 56.25173 37.29318 4198 ft 228 kts 120°
2026-05-07 15:55 56.24432 37.31835 4201 ft 228 kts 123°
2026-05-07 15:55 56.23646 37.34300 4196 ft 227 kts 124°
2026-05-07 15:55 56.22836 37.36749 4198 ft 227 kts 124°
2026-05-07 15:56 56.22023 37.39177 4197 ft 227 kts 124°
2026-05-07 15:56 56.21211 37.41607 4197 ft 227 kts 124°
2026-05-07 15:56 56.20403 37.44049 4195 ft 227 kts 124°
2026-05-07 15:56 56.19600 37.46497 4196 ft 228 kts 124°
2026-05-07 15:57 56.18798 37.48952 4198 ft 228 kts 124°
2026-05-07 15:57 56.17996 37.51408 4193 ft 228 kts 124°
2026-05-07 15:57 56.17192 37.53866 4191 ft 225 kts 124°
2026-05-07 15:57 56.16431 37.56211 4214 ft 208 kts 124°
2026-05-07 15:58 56.15713 37.58426 4251 ft 205 kts 124°
2026-05-07 15:58 56.14990 37.60634 4252 ft 206 kts 124°
2026-05-07 15:58 56.14260 37.62851 4251 ft 207 kts 125°
2026-05-07 15:58 56.13532 37.65057 4257 ft 200 kts 124°
2026-05-07 15:59 56.12836 37.67178 4261 ft 196 kts 125°
2026-05-07 15:59 56.12542 37.68071 4265 ft 196 kts 124°
2026-05-07 16:01 56.11850 37.70162 4259 ft 197 kts 125°
2026-05-07 16:01 56.11154 37.72273 4256 ft 197 kts 125°
2026-05-07 16:01 56.10889 37.73077 4252 ft 197 kts 125°
2026-05-07 16:02 56.10562 37.74065 4247 ft 196 kts 124°
2026-05-07 16:02 56.09654 37.75804 4201 ft 187 kts 155°
2026-05-07 16:02 56.08485 37.76122 4184 ft 164 kts 201°
2026-05-07 16:03 56.07634 37.75275 4169 ft 158 kts 221°
2026-05-07 16:03 56.06790 37.74013 4120 ft 159 kts 224°
2026-05-07 16:03 56.05958 37.72700 3886 ft 160 kts 224°
2026-05-07 16:03 56.05389 37.71806 3729 ft 159 kts 224°
2026-05-07 16:04 56.04643 37.70642 3499 ft 159 kts 224°
2026-05-07 16:05 56.03809 37.69347 3263 ft 159 kts 224°
2026-05-07 16:05 56.02982 37.68065 3035 ft 158 kts 224°
2026-05-07 16:05 56.02190 37.66730 2995 ft 157 kts 229°
2026-05-07 16:05 56.01465 37.65246 2993 ft 153 kts 234°
2026-05-07 16:06 56.00887 37.63773 3006 ft 137 kts 240°
2026-05-07 16:06 56.00444 37.62357 3001 ft 130 kts 245°
2026-05-07 16:06 56.00066 37.60842 2773 ft 137 kts 250°
2026-05-07 16:06 55.99742 37.59210 2400 ft 141 kts 254°
2026-05-07 16:07 55.99506 37.57518 2076 ft 138 kts 259°
2026-05-07 16:07 55.99334 37.55872 1920 ft 132 kts 256°
2026-05-07 16:07 55.99169 37.54799 1858 ft 134 kts 252°
2026-05-07 16:07 55.98785 37.52694 1648 ft 138 kts 256°
2026-05-07 16:08 55.98639 37.51588 1461 ft 137 kts 259°
2026-05-07 16:08 55.98416 37.49949 1256 ft 135 kts 257°
2026-05-07 16:08 55.98163 37.48315 1047 ft 139 kts 255°
2026-05-07 16:08 55.97907 37.46619 890 ft 143 kts 256°
2026-05-07 16:09 55.97643 37.44875 741 ft 146 kts 255°
2026-05-07 16:09 55.97383 37.43127 648 ft 144 kts 255°
2026-05-07 16:09 55.97175 37.41712 648 ft 79 kts 254°
2026-05-07 16:09 55.97066 37.40990 647 ft 54 kts 255°
2026-05-07 16:10 55.96953 37.40472 645 ft 36 kts 234°
2026-05-07 16:10 55.96859 37.40294 646 ft 12 kts 226°
2026-05-07 16:10 55.96781 37.40198 645 ft 13 kts 181°
2026-05-07 16:10 55.96758 37.40318 645 ft 13 kts 79°
2026-05-07 16:11 55.96780 37.40496 645 ft 16 kts 72°
2026-05-07 16:11 55.96766 37.40642 645 ft 13 kts 144°
2026-05-07 16:11 55.96671 37.40703 645 ft 16 kts 165°
2026-05-07 16:11 55.96561 37.40755 645 ft 16 kts 164°
2026-05-07 16:12 55.96485 37.40758 645 ft 9 kts 216°
2026-05-07 16:12 55.96450 37.40703 647 ft 5 kts 230°
2026-05-07 16:12 55.96445 37.40679 645 ft 0 kts 254°
2026-05-07 16:12 55.96445 37.40678 645 ft 0 kts 254°